Location: Fernhill
(41.0167°S, 175.6333°E)
Time: 09:18:14
(UTC+00:00)

CZ-4B R/B - Pass Details

Date: 08 November 2025
Orbit: 446 x 569 km, 97.8° (Epoch: 11 December)

Event Time Altitude Azimuth Distance (km) Brightness Sun altitude
Rises 09:56:09 0° 167° (SSE) 2,491 6.8 -25.4°
Reaches altitude 10° 09:58:12 10° 165° (SSE) 1,610 5.7 -25.6°
Enters shadow 09:59:45 25° 163° (SSE) 972 4.4 -25.8°
